User: anonymous   Login
Location: Alberta Star Party
(51.6612°N, 112.9089°W)
Time: 10:31:21
(UTC-07:00)
Language:

AO-Echo - Orbit

View from above orbital plane
View from above orbital plane
View from above satellite
View from above satellite

Ground track
Ground track

The orbit data is extracted from the following two-line orbital elements,

1 28375U 04025K   15065.10358775  .00000345  00000-0  11537-3 0  9991
2 28375 098.2833 008.5662 0081597 281.2116 077.9910 14.41600163561638
Epoch (UTC): 06 March 2015 02:29:09
Eccentricity: 0.0081597
inclination: 98.2833°
perigee height: 695 km
apogee height: 811 km
right ascension of ascending node: 8.5662°
argument of perigee: 281.2116°
revolutions per day: 14.41600163
mean anomaly at epoch: 77.9910°
orbit number at epoch: 56163

The dashed part of the orbit path shows where the satellite is in the earth's shadow,  

DLR